{"data":{"norad_id":63214,"intl_designator":"2025-052E","name":"TEVEL2-5","alt_names":[],"object_type":"PAYLOAD","status":"ACTIVE","operator":null,"country":"ISRA","launch_date":"2025-03-15","launch_site_code":"AFWTR","launch_vehicle":null,"mission":null,"orbit_class":"UNKNOWN","rcs_meters":null,"size_class":null,"mass_kg":null,"dimensions":null,"purposes":["comms"],"wikipedia_slug":null,"has_3d_model":false,"image_url":null,"decayed_at":null,"tle_current":{"epoch":"2026-05-24T15:42:01.454400Z","epoch_age_seconds":104943,"freshness":"FRESH","line1":"1 63214U 25052E   26144.65418350  .00015891  00000+0  49264-3 0  9990","line2":"2 63214  97.3929  40.9735 0003038 147.5060 212.6370 15.33501284 66502","mean_motion":15.33501284,"eccentricity":0.0003038,"inclination_deg":97.3929,"raan_deg":40.9735,"arg_perigee_deg":147.506,"mean_anomaly_deg":212.637,"bstar":0.00049264,"rev_number":6650,"period_min":93.902758023384,"perigee_km":463.29665885153,"apogee_km":467.45477717899,"semimajor_km":6843.5127180153,"source":"CELESTRAK","updated_at":"2026-05-25T13:38:23.296835Z"}}}